Miscellaneous Local Product
Issued by NWS Hastings, NE

Home | Current Version | Previous Version | Graphics & Text | Print | Product List | Glossary On
Versions: 1 2 3 4 5 6 7 8 9 10 11 12 13 14 15 16 17 18 19 20 21 22 23 24 25 26 27 28 29 30 31 32 33 34 35 36 37 38 39 40 41 42 43 44 45 46 47 48 49 50
000
AXUS43 KGID 271402
MISGRI

GID CWA HOURLY WEATHER ROUNDUP
NATIONAL WEATHER SERVICE HASTINGS NE
900 AM CDT WED APR 27 2016

NOTE: "FAIR" INDICATES FEW OR NO CLOUDS BELOW 12,000 FEET WITH NO
SIGNIFICANT WEATHER AND/OR OBSTRUCTIONS TO VISIBILITY.

...SOUTH CENTRAL NEBRASKA...

CITY           SKY/WX    TMP DP  RH WIND       PRES   REMARKS
GRAND ISLAND   CLOUDY    50  48  93 SW9       29.39F
HASTINGS       LGT RAIN  47  44  90 W26G33    29.39F
KEARNEY        CLOUDY    46  41  81 NW22G31   29.46R
ORD            HVY RAIN  47  46  97 N14G23    29.46S FOG
YORK           LGT RAIN  57  55  94 S13G20    29.42F
AURORA         LGT RAIN  53  53  99 SW3       29.40F
LEXINGTON      MIX PCPN  44  41  88 NW23G32   29.52F
HOLDREGE       LGT RAIN  46  43  91 W18G28    29.52F
HEBRON         PTSUNNY   52  48  87 W14G26    29.47F

...NEBRASKA PANHANDLE...

CITY           SKY/WX    TMP DP  RH WIND       PRES   REMARKS
CHADRON        CLOUDY    38  35  89 N15       29.82S FOG     WCI  29
ALLIANCE       CLOUDY    37  34  89 NW21      29.74F WCI  26
SCOTTSBLUFF    CLOUDY    36  30  79 NW18      29.81S WCI  26
SIDNEY         CLOUDY    34  30  85 NW22G32   29.76S WCI  22

...WESTERN AND NORTH CENTRAL NEBRASKA...

CITY           SKY/WX    TMP DP  RH WIND       PRES   REMARKS
VALENTINE      LGT RAIN  37  34  89 N17G29    29.65F WCI  27
AINSWORTH      RAIN      40  40  97 N21G28    29.62R WCI  31
ONEILL         RAIN      44  42  95 NE13      29.55S
BROKEN BOW     RAIN      42  42 100 N31G41    29.51F FOG
IMPERIAL       CLOUDY    39  33  79 NW24G32   29.68F WCI  28
NORTH PLATTE   LGT RAIN  41  39  93 NW16      29.60S
MCCOOK         CLOUDY    44  38  79 NW18G29   29.63S

...EASTERN NEBRASKA...

CITY           SKY/WX    TMP DP  RH WIND       PRES   REMARKS
NORFOLK        RAIN      44  42  93 E18G25    29.49F FOG
SO SIOUX CITY  RAIN      46  42  86 E21G31    29.58F FOG
TEKAMAH        LGT RAIN  47  45  93 E26G33    29.53F FOG
COLUMBUS       CLOUDY    48  43  81 E16G24    29.46F
ALBION         RAIN      45  44  95 E18G29    29.47S
OMAHA EPPLEY   LGT RAIN  51  49  92 E22       29.53F FOG
OFFUTT AFB     LGT RAIN  52  52 100 E14       29.52F FOG
MILLARD        RAIN      52  50  93 E10G18    29.52S
LINCOLN        CLOUDY    59  56  89 S16G25    29.46F
NEBRASKA CITY  DRIZZLE   56  56 100 SE6       29.52F
BEATRICE       CLOUDY    59  54  83 S17G26    29.48S
FALLS CITY       N/A     60  55  83 S13       29.51

...NORTHERN KANSAS...

CITY           SKY/WX    TMP DP  RH WIND       PRES   REMARKS
GOODLAND       CLOUDY    37  32  82 NW22G32   29.69F WCI  26
HILL CITY      CLOUDY    44  41  89 NW21G37   29.60R
NORTON         DRIZZLE   43  37  81 W16G26    29.59F
PHILLIPSBURG   RAIN      46  46 100 NW26G36   29.53F
SMITH CENTER   SUNNY     46  43  87 W17G23    29.53F
BELOIT         MOSUNNY   46  43  87 NW21G32   29.43F
HAYS           CLOUDY    46  36  66 NW17G24   29.60R
RUSSELL        MOSUNNY   52  44  74 NW16      29.55R
CONCORDIA      CLOUDY    54  46  74 NW23G29   29.49F
SALINA         CLOUDY    56  49  77 W6        29.54R
TOPEKA         CLOUDY    59  53  80 S10       29.53F



USA.gov is the U.S. government's official web portal to all federal, state and local government web resources and services.